sat.trackr.live / text

‹ back to catalog

STARLINK-32778

NORAD 62603 · 2025-008S

PAYLOAD ACTIVE UNKNOWN

§ Identity

Operator
Country
US
Launch date
2025-01-13
Launch site
AFETR
Launch vehicle
Mass (kg)
RCS (m²)

Purposes: comms

External: N2YO · Heavens-Above · Gunter

§ Orbital elements

Epoch: 2026-05-25T05:21:33.641856Z

Period
94.27 min
Inclination
43.0021°
Eccentricity
0.0001370
Mean motion
15.27590831 rev/d
Perigee alt
482.1 km
Apogee alt
484.0 km
Semi-major
6,861.2 km
B*
5.7571e-4
RAAN
206.1868°
Arg perigee
262.8374°
Mean anomaly
97.2322°
Rev number
7,726

§ Raw data

STARLINK-327781 62603U 25008S   26145.22330604  .00015619  00000+0  57571-3 0  99992 62603  43.0021 206.1868 0001370 262.8374  97.2322 15.27590831 77261

JSON: /api/v1/satellites/62603 · /tle

For live sub-satellite position, see the globe view (requires WebGL).

§ Visibility from observer

Set your observer location to see the next 7 days of passes ≥ 10°. The values pass through the URL so the page stays shareable.

No JS? Fill the form by hand. The geolocation button needs JavaScript.